User: anonymous   Login
Location: Melbourne
(37.8170°S, 144.9670°E)
Time: 20:06:48
(UTC+10:00)
Language:

CZ-3 R/B - Orbit

View from above orbital plane
View from above orbital plane
View from above satellite
View from above satellite

Ground track
Ground track

The orbit data is extracted from the following two-line orbital elements,

1 29517U 06048B   15182.06826060  .00128796 -96411-7  10669-2 0  9993
2 29517 028.4938 152.8327 4910185 298.1046 052.9239 05.94063267120607
Epoch (UTC): 01 July 2015 01:38:17
Eccentricity: 0.4910185
inclination: 28.4938°
perigee height: 176 km
apogee height: 12823 km
right ascension of ascending node: 152.8327°
argument of perigee: 298.1046°
revolutions per day: 5.94063267
mean anomaly at epoch: 52.9239°
orbit number at epoch: 12060

The dashed part of the orbit path shows where the satellite is in the earth's shadow,  

DLR